User: anonymous   Login
Location: L�Adrech
(44.2500°N, 6.4167°E)
Time: 16:29:48
(UTC+00:00)
Language:

Cosmos 1455 - Orbit

View from above orbital plane
View from above orbital plane
View from above satellite
View from above satellite

Ground track
Ground track

The orbit data is extracted from the following two-line orbital elements,

1 14032U 83037A   20227.55769932 +.00000331 +00000-0 +14485-4 0  9993
2 14032 082.5156 026.1189 0015861 221.2454 138.7583 15.18341757036249
Epoch (UTC): 14 August 2020 13:23:05
Eccentricity: 0.0015861
inclination: 82.5156°
perigee height: 500 km
apogee height: 522 km
right ascension of ascending node: 26.1189°
argument of perigee: 221.2454°
revolutions per day: 15.18341757
mean anomaly at epoch: 138.7583°
orbit number at epoch: 3624

The dashed part of the orbit path shows where the satellite is in the earth's shadow,  

DLR